| time (UTC) | temp F | wind direction | speed knots | gust knots | rain 1hr in | rain 24hr in | rain mn in | humidity % | barometer mb |
| 20260508094737 | 42 | 162 | 0.0 | 2.6 | 0.00 | 0.02 | 0.02 | 88 | 1014.1 |
| 20260508094237 | 42 | 241 | 0.0 | 1.7 | 0.00 | 0.02 | 0.02 | 88 | 1014.2 |
| 20260508093737 | 43 | 250 | 0.0 | 2.6 | 0.00 | 0.02 | 0.02 | 88 | 1014.2 |
| 20260508093258 | 43 | 241 | 0.9 | 2.6 | 0.00 | 0.02 | 0.02 | 88 | 1014.2 |
| 20260508092758 | 43 | 230 | 0.0 | 2.6 | 0.00 | 0.02 | 0.02 | 88 | 1014.2 |
| 20260508092258 | 43 | 279 | 0.9 | 1.7 | 0.00 | 0.02 | 0.02 | 87 | 1014.5 |
| 20260508091737 | 43 | 290 | 0.0 | 1.7 | 0.00 | 0.02 | 0.02 | 87 | 1014.5 |
| 20260508091237 | 43 | 290 | 0.0 | 2.6 | 0.00 | 0.02 | 0.02 | 87 | 1014.6 |
| 20260508090758 | 44 | 292 | 0.0 | 2.6 | 0.00 | 0.02 | 0.02 | 86 | 1014.6 |
| 20260508090237 | 44 | 309 | 0.9 | 2.6 | 0.00 | 0.02 | 0.02 | 87 | 1014.8 |
| 20260508085737 | 44 | 322 | 0.9 | 2.6 | 0.00 | 0.02 | 0.02 | 86 | 1014.9 |
| 20260508085258 | 44 | 313 | 0.9 | 2.6 | 0.00 | 0.02 | 0.02 | 86 | 1015.0 |
| 20260508084737 | 44 | 331 | 0.9 | 3.5 | 0.00 | 0.02 | 0.02 | 86 | 1015.1 |
| 20260508084237 | 45 | 345 | 1.7 | 4.3 | 0.00 | 0.02 | 0.02 | 85 | 1015.1 |
| 20260508083737 | 45 | 299 | 1.7 | 5.2 | 0.00 | 0.02 | 0.02 | 85 | 1015.2 |
| 20260508083237 | 45 | 298 | 1.7 | 5.2 | 0.00 | 0.02 | 0.02 | 85 | 1015.2 |
| 20260508082737 | 45 | 305 | 1.7 | 5.2 | 0.00 | 0.02 | 0.02 | 84 | 1015.0 |
| 20260508082237 | 45 | 299 | 1.7 | 3.5 | 0.00 | 0.02 | 0.02 | 83 | 1015.0 |
| 20260508081737 | 45 | 294 | 0.9 | 3.5 | 0.00 | 0.02 | 0.02 | 83 | 1015.0 |
| 20260508081237 | 46 | 311 | 0.9 | 4.3 | 0.00 | 0.02 | 0.02 | 82 | 1015.1 |
| 20260508080737 | 46 | 297 | 0.9 | 4.3 | 0.00 | 0.02 | 0.02 | 82 | 1015.1 |
| 20260508080237 | 46 | 299 | 1.7 | 4.3 | 0.00 | 0.02 | 0.02 | 81 | 1015.1 |
| 20260508075737 | 46 | 307 | 0.9 | 4.3 | 0.01 | 0.02 | 0.02 | 80 | 1015.0 |
| 20260508075237 | 47 | 314 | 1.7 | 5.2 | 0.01 | 0.02 | 0.02 | 80 | 1014.9 |
| 20260508074737 | 47 | 324 | 0.9 | 3.5 | 0.02 | 0.02 | 0.02 | 79 | 1014.8 |
| 20260508074237 | 47 | 310 | 0.9 | 3.5 | 0.02 | 0.02 | 0.02 | 77 | 1014.8 |
| 20260508073737 | 48 | 306 | 1.7 | 3.5 | 0.02 | 0.02 | 0.02 | 76 | 1014.7 |
| 20260508073237 | 49 | 295 | 0.9 | 2.6 | 0.02 | 0.02 | 0.02 | 74 | 1014.6 |
| 20260508072737 | 49 | 327 | 0.9 | 1.7 | 0.02 | 0.02 | 0.02 | 73 | 1014.5 |
| 20260508072237 | 50 | 325 | 0.9 | 4.3 | 0.02 | 0.02 | 0.02 | 72 | 1014.3 |
| 20260508071737 | 50 | 329 | 0.9 | 4.3 | 0.02 | 0.02 | 0.02 | 71 | 1014.3 |
| 20260508071237 | 51 | 338 | 1.7 | 4.3 | 0.02 | 0.02 | 0.02 | 69 | 1014.3 |
| 20260508070737 | 51 | 300 | 0.9 | 2.6 | 0.02 | 0.02 | 0.02 | 69 | 1014.5 |
| 20260508070237 | 52 | 279 | 0.0 | 3.5 | 0.02 | 0.02 | 0.02 | 67 | 1014.4 |
| 20260508065737 | 52 | 314 | 1.7 | 13.0 | 0.01 | 0.01 | 0.01 | 67 | 1014.3 |
| 20260508065237 | 51 | 191 | 3.5 | 13.0 | 0.01 | 0.01 | 0.01 | 68 | 1014.1 |
| 20260508064758 | 50 | 307 | 5.2 | 13.0 | 0.00 | 0.00 | 0.00 | 76 | 1015.6 |
| 20260508064237 | 50 | 316 | 6.1 | 11.3 | 0.00 | 0.00 | 0.00 | 76 | 1015.9 |
| 20260508063737 | 50 | 323 | 5.2 | 11.3 | 0.00 | 0.00 | 0.00 | 75 | 1015.8 |
| 20260508063237 | 50 | 334 | 3.5 | 8.7 | 0.00 | 0.00 | 0.00 | 76 | 1015.5 |
| 20260508062737 | 50 | 350 | 4.3 | 8.7 | 0.00 | 0.00 | 0.00 | 76 | 1015.3 |
| 20260508062237 | 50 | 313 | 3.5 | 7.8 | 0.00 | 0.00 | 0.00 | 76 | 1015.2 |
| 20260508061758 | 50 | 337 | 2.6 | 5.2 | 0.00 | 0.00 | 0.00 | 76 | 1015.0 |
| 20260508061237 | 50 | 24 | 0.9 | 5.2 | 0.00 | 0.00 | 0.00 | 75 | 1014.4 |
| 20260508060737 | 50 | 61 | 2.6 | 5.2 | 0.00 | 0.00 | 0.00 | 74 | 1014.3 |
| 20260508060258 | 51 | 22 | 2.6 | 4.3 | 0.00 | 0.00 | 0.00 | 73 | 1014.4 |
| 20260508055737 | 51 | 23 | 2.6 | 4.3 | 0.00 | 0.00 | 0.00 | 72 | 1014.3 |
| 20260508055237 | 51 | 52 | 1.7 | 4.3 | 0.00 | 0.00 | 0.00 | 71 | 1014.3 |
| 20260508054737 | 51 | 38 | 1.7 | 6.1 | 0.00 | 0.00 | 0.00 | 70 | 1014.4 |
| 20260508054237 | 51 | 54 | 3.5 | 6.1 | 0.00 | 0.00 | 0.00 | 69 | 1014.3 |
| 20260508053737 | 52 | 50 | 2.6 | 6.1 | 0.00 | 0.00 | 0.00 | 68 | 1014.5 |
| 20260508053237 | 52 | 59 | 1.7 | 7.8 | 0.00 | 0.00 | 0.00 | 68 | 1014.5 |
| 20260508052737 | 52 | -1 | 2.6 | 7.8 | 0.00 | 0.00 | 0.00 | 67 | 1014.6 |
| 20260508052237 | 52 | 339 | 2.6 | 13.0 | 0.00 | 0.00 | 0.00 | 67 | 1014.7 |
| 20260508051737 | 53 | 27 | 4.3 | 13.0 | 0.00 | 0.00 | 0.00 | 66 | 1014.9 |
| 20260508051258 | 52 | 14 | 3.5 | 7.8 | 0.00 | 0.00 | 0.00 | 67 | 1015.1 |
| 20260508050737 | 52 | 352 | 3.5 | 6.1 | 0.00 | 0.00 | 0.00 | 68 | 1015.5 |
| 20260508050237 | 52 | 346 | 1.7 | 3.5 | 0.00 | 0.00 | 0.00 | 68 | 1015.6 |
| 20260508045737 | 52 | 31 | 1.7 | 3.5 | 0.00 | 0.00 | 0.00 | 68 | 1015.0 |
| 20260508045258 | 52 | 52 | 0.9 | 2.6 | 0.00 | 0.00 | 0.00 | 68 | 1014.8 |
| 20260508044737 | 52 | 128 | 0.0 | 1.7 | 0.00 | 0.00 | 0.00 | 67 | 1014.8 |
| 20260508044237 | 52 | 128 | 0.0 | 1.7 | 0.00 | 0.00 | 0.00 | 66 | 1014.7 |
| 20260508043758 | 52 | 136 | 0.0 | 2.6 | 0.00 | 0.00 | 0.00 | 65 | 1014.6 |
| 20260508043237 | 53 | 129 | 0.9 | 2.6 | 0.00 | 0.00 | 0.00 | 65 | 1014.6 |
| 20260508042737 | 53 | 103 | 0.0 | 1.7 | 0.00 | 0.00 | 0.00 | 64 | 1014.7 |
| 20260508042237 | 53 | 103 | 0.0 | 1.7 | 0.00 | 0.00 | 0.00 | 63 | 1014.7 |
| 20260508041737 | 53 | 103 | 0.0 | 1.7 | 0.00 | 0.00 | 0.00 | 63 | 1014.6 |
| 20260508041237 | 53 | 103 | 0.0 | 1.7 | 0.00 | 0.00 | 0.00 | 62 | 1014.6 |
| 20260508040737 | 54 | 103 | 0.0 | 1.7 | 0.00 | 0.00 | 0.00 | 62 | 1014.7 |
| 20260508040237 | 54 | 103 | 0.0 | 2.6 | 0.00 | 0.00 | 0.00 | 61 | 1014.9 |
| 20260508035737 | 54 | 103 | 0.0 | 2.6 | 0.00 | 0.00 | 0.00 | 60 | 1014.8 |
| 20260508035258 | 54 | 91 | 0.0 | 3.5 | 0.00 | 0.00 | 0.00 | 60 | 1014.7 |
| 20260508034737 | 55 | 54 | 0.9 | 3.5 | 0.00 | 0.00 | 0.00 | 59 | 1014.8 |
| 20260508034258 | 55 | 29 | 1.7 | 3.5 | 0.00 | 0.00 | 0.00 | 59 | 1014.9 |
| 20260508033737 | 55 | 17 | 0.9 | 4.3 | 0.00 | 0.00 | 0.00 | 58 | 1015.0 |
| 20260508033237 | 55 | 10 | 1.7 | 6.1 | 0.00 | 0.00 | 0.00 | 58 | 1014.9 |
| 20260508032737 | 56 | 19 | 2.6 | 6.1 | 0.00 | 0.00 | 0.00 | 56 | 1015.0 |
| 20260508032237 | 56 | 6 | 1.7 | 4.3 | 0.00 | 0.00 | 0.00 | 55 | 1014.8 |
| 20260508031737 | 56 | 18 | 0.9 | 3.5 | 0.00 | 0.00 | 0.00 | 53 | 1014.7 |
| 20260508031237 | 56 | 31 | 1.7 | 6.1 | 0.00 | 0.00 | 0.00 | 53 | 1014.5 |
| 20260508030737 | 56 | 16 | 2.6 | 6.1 | 0.00 | 0.00 | 0.00 | 51 | 1014.3 |
| 20260508030237 | 57 | 26 | 0.9 | 3.5 | 0.00 | 0.00 | 0.00 | 51 | 1014.2 |
| 20260508025758 | 57 | 93 | 0.0 | 2.6 | 0.00 | 0.00 | 0.00 | 50 | 1013.6 |
| 20260508025237 | 57 | 36 | 0.0 | 1.7 | 0.00 | 0.00 | 0.00 | 48 | 1013.5 |
| 20260508024737 | 57 | 36 | 0.0 | 1.7 | 0.00 | 0.00 | 0.00 | 48 | 1013.4 |
| 20260508024237 | 57 | 36 | 0.0 | 2.6 | 0.00 | 0.00 | 0.00 | 49 | 1013.4 |
| 20260508023737 | 58 | 32 | 0.9 | 5.2 | 0.00 | 0.00 | 0.00 | 48 | 1013.3 |
| 20260508023237 | 58 | 4 | 2.6 | 5.2 | 0.00 | 0.00 | 0.00 | 47 | 1013.3 |
| 20260508022737 | 58 | 339 | 1.7 | 6.1 | 0.00 | 0.00 | 0.00 | 48 | 1013.3 |
| 20260508022237 | 58 | 4 | 2.6 | 6.1 | 0.00 | 0.00 | 0.00 | 48 | 1013.2 |
| 20260508021737 | 58 | 39 | 2.6 | 6.1 | 0.00 | 0.00 | 0.00 | 50 | 1013.0 |
| 20260508021237 | 58 | 48 | 3.5 | 6.1 | 0.00 | 0.00 | 0.00 | 50 | 1012.9 |
| 20260508020737 | 58 | 47 | 3.5 | 6.1 | 0.00 | 0.00 | 0.00 | 49 | 1013.0 |
| 20260508020237 | 58 | 28 | 2.6 | 6.1 | 0.00 | 0.00 | 0.00 | 49 | 1013.0 |
| 20260508015758 | 58 | 16 | 2.6 | 7.8 | 0.00 | 0.00 | 0.00 | 49 | 1013.1 |
| 20260508015237 | 59 | 12 | 2.6 | 7.8 | 0.00 | 0.00 | 0.00 | 48 | 1013.2 |
| 20260508014737 | 59 | 16 | 4.3 | 9.6 | 0.00 | 0.00 | 0.00 | 47 | 1013.2 |
| 20260508014237 | 59 | 15 | 4.3 | 9.6 | 0.00 | 0.00 | 0.00 | 46 | 1013.1 |
| 20260508013737 | 60 | 352 | 4.3 | 11.3 | 0.00 | 0.00 | 0.00 | 45 | 1013.0 |
| 20260508013237 | 60 | 4 | 5.2 | 11.3 | 0.00 | 0.00 | 0.00 | 44 | 1012.8 |
| 20260508012758 | 61 | -1 | 5.2 | 9.6 | 0.00 | 0.00 | 0.00 | 42 | 1012.6 |
| 20260508012237 | 62 | 16 | 5.2 | 12.2 | 0.00 | 0.00 | 0.00 | 38 | 1012.6 |
| 20260508011737 | 62 | 16 | 2.6 | 5.2 | 0.00 | 0.00 | 0.00 | 39 | 1012.4 |
| 20260508011237 | 63 | 12 | 0.9 | 2.6 | 0.00 | 0.00 | 0.00 | 37 | 1012.3 |
| 20260508010737 | 63 | 5 | 0.9 | 2.6 | 0.00 | 0.00 | 0.00 | 36 | 1012.2 |
| 20260508010237 | 63 | -1 | 0.9 | 2.6 | 0.00 | 0.00 | 0.00 | 35 | 1012.1 |
| 20260508005737 | 64 | 355 | 0.9 | 2.6 | 0.00 | 0.00 | 0.00 | 34 | 1012.0 |
| 20260508005237 | 64 | 360 | 0.9 | 5.2 | 0.00 | 0.00 | 0.00 | 33 | 1012.0 |
| 20260508004737 | 64 | 345 | 1.7 | 5.2 | 0.00 | 0.00 | 0.00 | 32 | 1011.9 |
| 20260508004237 | 65 | 345 | 0.9 | 3.5 | 0.00 | 0.00 | 0.00 | 32 | 1012.0 |
| 20260508003737 | 65 | 316 | 0.9 | 4.3 | 0.00 | 0.00 | 0.00 | 31 | 1011.8 |
| 20260508003237 | 65 | 332 | 1.7 | 4.3 | 0.00 | 0.00 | 0.00 | 30 | 1011.8 |
| 20260508002737 | 65 | 345 | 0.9 | 7.0 | 0.00 | 0.00 | 0.00 | 30 | 1011.8 |
| 20260508002237 | 66 | 341 | 3.5 | 8.7 | 0.00 | 0.00 | 0.00 | 29 | 1011.8 |
| 20260508001737 | 66 | 297 | 3.5 | 8.7 | 0.00 | 0.00 | 0.00 | 26 | 1011.9 |
| 20260508001237 | 66 | 289 | 3.5 | 7.0 | 0.00 | 0.00 | 0.00 | 26 | 1011.8 |
| 20260508000737 | 66 | 309 | 2.6 | 9.6 | 0.00 | 0.00 | 0.00 | 26 | 1011.8 |
| 20260508000237 | 67 | 317 | 3.5 | 10.4 | 0.00 | 0.00 | 0.00 | 25 | 1011.9 |
| 20260507235737 | 67 | 319 | 5.2 | 11.3 | 0.00 | 0.00 | 0.00 | 24 | 1011.9 |
| 20260507235237 | 68 | 292 | 3.5 | 11.3 | 0.00 | 0.00 | 0.00 | 23 | 1011.8 |
| 20260507234737 | 69 | 314 | 4.3 | 10.4 | 0.00 | 0.00 | 0.00 | 23 | 1011.7 |
| 20260507234237 | 70 | 291 | 3.5 | 10.4 | 0.00 | 0.00 | 0.00 | 22 | 1011.8 |
| 20260507233737 | 70 | 279 | 4.3 | 8.7 | 0.00 | 0.00 | 0.00 | 23 | 1011.9 |
| 20260507233237 | 70 | 310 | 3.5 | 9.6 | 0.00 | 0.00 | 0.00 | 24 | 1011.8 |
| 20260507232737 | 70 | 294 | 5.2 | 9.6 | 0.00 | 0.00 | 0.00 | 23 | 1011.7 |
| 20260507232237 | 70 | 287 | 4.3 | 7.8 | 0.00 | 0.00 | 0.00 | 23 | 1011.8 |
| 20260507231737 | 70 | 263 | 3.5 | 9.6 | 0.00 | 0.00 | 0.00 | 24 | 1011.8 |
| 20260507231237 | 70 | 293 | 4.3 | 13.0 | 0.00 | 0.00 | 0.00 | 22 | 1011.9 |
| 20260507230737 | 70 | 309 | 5.2 | 13.0 | 0.00 | 0.00 | 0.00 | 25 | 1011.8 |
| 20260507230237 | 70 | 312 | 3.5 | 9.6 | 0.00 | 0.00 | 0.00 | 25 | 1011.8 |
| 20260507225737 | 70 | 296 | 5.2 | 10.4 | 0.00 | 0.00 | 0.00 | 23 | 1011.9 |
| 20260507225237 | 70 | 313 | 3.5 | 12.2 | 0.00 | 0.00 | 0.00 | 25 | 1011.9 |
| 20260507224737 | 70 | 297 | 6.1 | 12.2 | 0.00 | 0.00 | 0.00 | 24 | 1011.8 |
| 20260507224237 | 70 | 293 | 4.3 | 9.6 | 0.00 | 0.00 | 0.00 | 24 | 1011.8 |
| 20260507223737 | 70 | 270 | 3.5 | 8.7 | 0.00 | 0.00 | 0.00 | 24 | 1011.7 |
| 20260507223237 | 70 | 316 | 5.2 | 12.2 | 0.00 | 0.00 | 0.00 | 24 | 1011.8 |
| 20260507222737 | 69 | 286 | 2.6 | 11.3 | 0.00 | 0.00 | 0.00 | 25 | 1011.7 |
| 20260507222237 | 69 | 312 | 6.1 | 11.3 | 0.00 | 0.00 | 0.00 | 26 | 1011.8 |
| 20260507221737 | 68 | 313 | 4.3 | 9.6 | 0.00 | 0.00 | 0.00 | 27 | 1011.8 |
| 20260507221237 | 69 | 295 | 4.3 | 10.4 | 0.00 | 0.00 | 0.00 | 25 | 1012.0 |
| 20260507220758 | 70 | 320 | 4.3 | 11.3 | 0.00 | 0.00 | 0.00 | 25 | 1012.1 |
| 20260507220237 | 70 | 303 | 4.3 | 11.3 | 0.00 | 0.00 | 0.00 | 25 | 1012.1 |
| 20260507215737 | 69 | 286 | 4.3 | 14.8 | 0.00 | 0.00 | 0.00 | 24 | 1012.2 |
| 20260507215237 | 69 | 324 | 5.2 | 14.8 | 0.00 | 0.00 | 0.00 | 25 | 1012.3 |
| 20260507214737 | 69 | 309 | 5.2 | 11.3 | 0.00 | 0.00 | 0.00 | 25 | 1012.4 |
| 20260507214237 | 70 | 312 | 6.1 | 11.3 | 0.00 | 0.00 | 0.00 | 24 | 1012.4 |
| 20260507213737 | 69 | 305 | 5.2 | 11.3 | 0.00 | 0.00 | 0.00 | 26 | 1012.4 |
| 20260507213237 | 69 | 326 | 6.1 | 13.9 | 0.00 | 0.00 | 0.00 | 26 | 1012.6 |
| 20260507212737 | 69 | 306 | 5.2 | 13.9 | 0.00 | 0.00 | 0.00 | 28 | 1012.6 |
| 20260507212237 | 69 | 329 | 6.1 | 11.3 | 0.00 | 0.00 | 0.00 | 26 | 1012.7 |
| 20260507211737 | 69 | 284 | 4.3 | 13.9 | 0.00 | 0.00 | 0.00 | 27 | 1012.8 |
| 20260507211258 | 69 | 336 | 7.0 | 13.9 | 0.00 | 0.00 | 0.00 | 26 | 1012.8 |
| 20260507210758 | 69 | 312 | 7.0 | 13.9 | 0.00 | 0.00 | 0.00 | 25 | 1012.8 |
| 20260507210237 | 69 | 335 | 6.1 | 13.9 | 0.00 | 0.00 | 0.00 | 26 | 1012.8 |
| 20260507205737 | 69 | 303 | 5.2 | 12.2 | 0.00 | 0.00 | 0.00 | 26 | 1012.9 |
| 20260507205237 | 68 | 301 | 5.2 | 12.2 | 0.00 | 0.00 | 0.00 | 27 | 1012.8 |
| 20260507204737 | 68 | 322 | 5.2 | 9.6 | 0.00 | 0.00 | 0.00 | 26 | 1013.0 |
| 20260507204237 | 69 | 280 | 4.3 | 11.3 | 0.00 | 0.00 | 0.00 | 26 | 1013.0 |
| 20260507203737 | 69 | 334 | 6.1 | 11.3 | 0.00 | 0.00 | 0.00 | 26 | 1013.1 |
| 20260507203237 | 69 | 289 | 6.1 | 15.6 | 0.00 | 0.00 | 0.00 | 27 | 1013.2 |
| 20260507202737 | 69 | 292 | 4.3 | 15.6 | 0.00 | 0.00 | 0.00 | 28 | 1013.2 |
| 20260507202237 | 69 | 288 | 3.5 | 10.4 | 0.00 | 0.00 | 0.00 | 27 | 1013.3 |
| 20260507201737 | 69 | -1 | 3.5 | 10.4 | 0.00 | 0.00 | 0.00 | 27 | 1013.4 |
| 20260507201237 | 68 | 300 | 5.2 | 12.2 | 0.00 | 0.00 | 0.00 | 27 | 1013.5 |
| 20260507200737 | 69 | 271 | 5.2 | 13.9 | 0.00 | 0.00 | 0.00 | 26 | 1013.5 |
| 20260507200237 | 68 | 304 | 6.1 | 13.9 | 0.00 | 0.00 | 0.00 | 27 | 1013.5 |
| 20260507195737 | 68 | 292 | 5.2 | 13.0 | 0.00 | 0.00 | 0.00 | 26 | 1013.5 |
| 20260507195258 | 68 | 296 | 5.2 | 13.0 | 0.00 | 0.00 | 0.00 | 28 | 1013.6 |
| 20260507194737 | 68 | 270 | 7.0 | 13.0 | 0.00 | 0.00 | 0.00 | 26 | 1013.6 |
| 20260507194237 | 68 | 221 | 5.2 | 13.0 | 0.00 | 0.00 | 0.00 | 27 | 1013.6 |
| 20260507193737 | 68 | 297 | 4.3 | 11.3 | 0.00 | 0.00 | 0.00 | 29 | 1013.6 |
| 20260507193237 | 68 | 262 | 5.2 | 13.0 | 0.00 | 0.00 | 0.00 | 29 | 1013.8 |
| 20260507192737 | 68 | 269 | 5.2 | 13.9 | 0.00 | 0.00 | 0.00 | 30 | 1013.9 |
| 20260507192237 | 68 | 288 | 6.1 | 13.9 | 0.00 | 0.00 | 0.00 | 29 | 1013.9 |
| 20260507191737 | 68 | 257 | 4.3 | 11.3 | 0.00 | 0.00 | 0.00 | 29 | 1014.1 |
| 20260507191237 | 67 | 295 | 5.2 | 12.2 | 0.00 | 0.00 | 0.00 | 30 | 1014.0 |
| 20260507190737 | 67 | 300 | 5.2 | 13.9 | 0.00 | 0.00 | 0.00 | 31 | 1014.0 |
| 20260507190237 | 67 | 316 | 6.1 | 13.9 | 0.00 | 0.00 | 0.00 | 30 | 1014.0 |
| 20260507185758 | 67 | 262 | 3.5 | 10.4 | 0.00 | 0.00 | 0.00 | 29 | 1014.1 |
| 20260507185237 | 68 | 245 | 3.5 | 10.4 | 0.00 | 0.00 | 0.00 | 28 | 1014.1 |
| 20260507184737 | 68 | 299 | 3.5 | 10.4 | 0.00 | 0.00 | 0.00 | 31 | 1014.3 |
| 20260507184237 | 68 | 298 | 3.5 | 7.8 | 0.00 | 0.00 | 0.00 | 30 | 1014.1 |
| 20260507183737 | 67 | 302 | 2.6 | 11.3 | 0.00 | 0.00 | 0.00 | 30 | 1014.2 |
| 20260507183258 | 67 | 268 | 2.6 | 9.6 | 0.00 | 0.00 | 0.00 | 28 | 1014.3 |
| 20260507182737 | 67 | 269 | 4.3 | 9.6 | 0.00 | 0.00 | 0.00 | 29 | 1014.4 |
| 20260507182237 | 67 | 274 | 2.6 | 7.8 | 0.00 | 0.00 | 0.00 | 29 | 1014.5 |
| 20260507181737 | 67 | 274 | 2.6 | 9.6 | 0.00 | 0.00 | 0.00 | 29 | 1014.5 |
| 20260507181258 | 67 | 249 | 2.6 | 9.6 | 0.00 | 0.00 | 0.00 | 30 | 1014.5 |
| 20260507180737 | 67 | 271 | 1.7 | 7.0 | 0.00 | 0.00 | 0.00 | 32 | 1014.5 |
| 20260507180237 | 67 | 284 | 2.6 | 7.8 | 0.00 | 0.00 | 0.00 | 30 | 1014.6 |
| 20260507175737 | 66 | 303 | 3.5 | 7.8 | 0.00 | 0.00 | 0.00 | 31 | 1014.6 |
| 20260507175237 | 66 | 292 | 2.6 | 7.0 | 0.00 | 0.00 | 0.00 | 28 | 1014.6 |
| 20260507174737 | 66 | 303 | 2.6 | 7.8 | 0.00 | 0.00 | 0.00 | 32 | 1014.7 |
| 20260507174237 | 65 | 274 | 2.6 | 8.7 | 0.00 | 0.00 | 0.00 | 31 | 1014.8 |
| 20260507173737 | 64 | 300 | 3.5 | 7.8 | 0.00 | 0.00 | 0.00 | 34 | 1014.9 |
| 20260507173237 | 64 | 292 | 3.5 | 9.6 | 0.00 | 0.00 | 0.00 | 32 | 1015.0 |
| 20260507172758 | 64 | 284 | 3.5 | 9.6 | 0.00 | 0.00 | 0.00 | 34 | 1015.0 |
| 20260507172237 | 64 | 258 | 2.6 | 10.4 | 0.00 | 0.00 | 0.00 | 36 | 1015.1 |
| 20260507171737 | 63 | 266 | 2.6 | 7.8 | 0.00 | 0.00 | 0.00 | 34 | 1015.2 |
| 20260507171237 | 63 | 267 | 2.6 | 8.7 | 0.00 | 0.00 | 0.00 | 35 | 1015.3 |
| 20260507170758 | 63 | 248 | 3.5 | 8.7 | 0.00 | 0.00 | 0.00 | 34 | 1015.3 |
| 20260507170237 | 63 | 317 | 2.6 | 7.8 | 0.00 | 0.00 | 0.00 | 34 | 1015.3 |
| 20260507165737 | 63 | 284 | 1.7 | 7.8 | 0.00 | 0.00 | 0.00 | 32 | 1015.4 |
| 20260507165237 | 63 | 249 | 2.6 | 6.1 | 0.00 | 0.00 | 0.00 | 32 | 1015.5 |
| 20260507164758 | 63 | 288 | 1.7 | 6.1 | 0.00 | 0.00 | 0.00 | 31 | 1015.4 |
| 20260507164258 | 63 | 274 | 1.7 | 6.1 | 0.00 | 0.00 | 0.00 | 32 | 1015.4 |
| 20260507163737 | 63 | 285 | 1.7 | 7.8 | 0.00 | 0.00 | 0.00 | 32 | 1015.3 |
| 20260507163237 | 63 | 274 | 2.6 | 7.8 | 0.00 | 0.00 | 0.00 | 34 | 1015.2 |
| 20260507162737 | 62 | 249 | 2.6 | 8.7 | 0.00 | 0.00 | 0.00 | 34 | 1015.2 |
| 20260507162237 | 62 | 260 | 3.5 | 8.7 | 0.00 | 0.00 | 0.00 | 35 | 1015.2 |
| 20260507161737 | 61 | 239 | 3.5 | 7.8 | 0.00 | 0.00 | 0.00 | 35 | 1015.2 |
| 20260507161237 | 61 | 263 | 2.6 | 10.4 | 0.00 | 0.00 | 0.00 | 37 | 1015.4 |
| 20260507160737 | 60 | 240 | 4.3 | 10.4 | 0.00 | 0.00 | 0.00 | 36 | 1015.5 |
| 20260507160237 | 60 | 260 | 2.6 | 8.7 | 0.00 | 0.00 | 0.00 | 39 | 1015.6 |
| 20260507155737 | 60 | 194 | 3.5 | 8.7 | 0.00 | 0.00 | 0.00 | 38 | 1015.7 |
| 20260507155237 | 59 | 281 | 3.5 | 9.6 | 0.00 | 0.00 | 0.00 | 38 | 1015.7 |
| 20260507154737 | 59 | 261 | 3.5 | 9.6 | 0.00 | 0.00 | 0.00 | 37 | 1015.8 |
| 20260507154237 | 58 | 275 | 3.5 | 7.8 | 0.00 | 0.00 | 0.00 | 39 | 1015.8 |
| 20260507153737 | 58 | 242 | 2.6 | 8.7 | 0.00 | 0.00 | 0.00 | 40 | 1015.8 |
| 20260507153237 | 58 | 229 | 3.5 | 8.7 | 0.00 | 0.00 | 0.00 | 38 | 1015.9 |
| 20260507152737 | 57 | 224 | 3.5 | 11.3 | 0.00 | 0.00 | 0.00 | 39 | 1015.8 |
| 20260507152237 | 57 | 269 | 3.5 | 11.3 | 0.00 | 0.00 | 0.00 | 38 | 1015.8 |
| 20260507151737 | 57 | 257 | 3.5 | 7.8 | 0.00 | 0.00 | 0.00 | 40 | 1015.8 |
| 20260507151237 | 56 | 278 | 3.5 | 10.4 | 0.00 | 0.00 | 0.00 | 41 | 1015.8 |
| 20260507150737 | 56 | 253 | 2.6 | 10.4 | 0.00 | 0.00 | 0.00 | 42 | 1015.7 |
| 20260507150237 | 56 | 236 | 3.5 | 9.6 | 0.00 | 0.00 | 0.00 | 41 | 1015.7 |
| 20260507145737 | 55 | 270 | 3.5 | 9.6 | 0.00 | 0.00 | 0.00 | 42 | 1015.7 |
| 20260507145237 | 54 | 265 | 2.6 | 11.3 | 0.00 | 0.00 | 0.00 | 43 | 1015.8 |
| 20260507144737 | 54 | 243 | 3.5 | 12.2 | 0.00 | 0.00 | 0.00 | 43 | 1015.7 |
| 20260507144237 | 54 | 251 | 4.3 | 12.2 | 0.00 | 0.00 | 0.00 | 43 | 1015.8 |
| 20260507143758 | 53 | 250 | 2.6 | 12.2 | 0.00 | 0.00 | 0.00 | 44 | 1015.8 |
| 20260507143258 | 53 | 246 | 2.6 | 8.7 | 0.00 | 0.00 | 0.00 | 45 | 1015.9 |
| 20260507142737 | 52 | 219 | 3.5 | 11.3 | 0.00 | 0.00 | 0.00 | 44 | 1015.8 |
| 20260507142237 | 52 | 244 | 4.3 | 11.3 | 0.00 | 0.00 | 0.00 | 44 | 1015.7 |
| 20260507141737 | 51 | 264 | 3.5 | 10.4 | 0.00 | 0.00 | 0.00 | 44 | 1015.7 |
| 20260507141237 | 51 | 250 | 5.2 | 10.4 | 0.00 | 0.00 | 0.00 | 44 | 1015.7 |
| 20260507140737 | 51 | 245 | 2.6 | 12.2 | 0.00 | 0.00 | 0.00 | 44 | 1015.7 |
| 20260507140237 | 51 | 215 | 4.3 | 12.2 | 0.00 | 0.00 | 0.00 | 44 | 1015.6 |
| 20260507135737 | 50 | 264 | 3.5 | 8.7 | 0.00 | 0.00 | 0.00 | 45 | 1015.7 |
| 20260507135258 | 50 | 283 | 2.6 | 8.7 | 0.00 | 0.00 | 0.00 | 45 | 1015.7 |
| 20260507134737 | 49 | 262 | 3.5 | 8.7 | 0.00 | 0.00 | 0.00 | 47 | 1015.6 |
| 20260507134237 | 49 | 222 | 3.5 | 7.8 | 0.00 | 0.00 | 0.00 | 47 | 1015.5 |
| 20260507133737 | 48 | 249 | 3.5 | 8.7 | 0.00 | 0.00 | 0.00 | 48 | 1015.5 |
| 20260507133237 | 48 | 250 | 2.6 | 8.7 | 0.00 | 0.00 | 0.00 | 47 | 1015.5 |
| 20260507132737 | 47 | 244 | 3.5 | 7.8 | 0.00 | 0.00 | 0.00 | 48 | 1015.5 |
| 20260507132237 | 47 | 266 | 2.6 | 7.0 | 0.00 | 0.00 | 0.00 | 48 | 1015.4 |
| 20260507131737 | 46 | 246 | 2.6 | 6.1 | 0.00 | 0.00 | 0.00 | 49 | 1015.4 |
| 20260507131237 | 46 | 268 | 2.6 | 7.0 | 0.00 | 0.00 | 0.00 | 49 | 1015.4 |
| 20260507130737 | 45 | 222 | 3.5 | 9.6 | 0.00 | 0.00 | 0.00 | 50 | 1015.3 |
| 20260507130237 | 45 | 275 | 1.7 | 7.0 | 0.00 | 0.00 | 0.00 | 51 | 1015.2 |
| 20260507125737 | 44 | 227 | 2.6 | 7.0 | 0.00 | 0.00 | 0.00 | 51 | 1015.1 |
| 20260507125237 | 44 | 239 | 2.6 | 7.0 | 0.00 | 0.00 | 0.00 | 51 | 1015.1 |
| 20260507124737 | 43 | 217 | 2.6 | 7.0 | 0.00 | 0.00 | 0.00 | 51 | 1015.1 |
| 20260507124237 | 43 | 201 | 1.7 | 5.2 | 0.00 | 0.00 | 0.00 | 51 | 1015.1 |
| 20260507123758 | 42 | 224 | 2.6 | 6.1 | 0.00 | 0.00 | 0.00 | 52 | 1015.1 |
| 20260507123237 | 42 | 243 | 2.6 | 6.1 | 0.00 | 0.00 | 0.00 | 52 | 1015.0 |
| 20260507122737 | 41 | 280 | 1.7 | 6.1 | 0.00 | 0.00 | 0.00 | 53 | 1014.9 |
| 20260507122237 | 41 | 240 | 2.6 | 6.1 | 0.00 | 0.00 | 0.00 | 53 | 1014.9 |
| 20260507121737 | 41 | 219 | 2.6 | 5.2 | 0.00 | 0.00 | 0.00 | 54 | 1014.8 |
| 20260507121237 | 40 | 247 | 0.9 | 4.3 | 0.00 | 0.00 | 0.00 | 55 | 1014.9 |
| 20260507120737 | 40 | 231 | 2.6 | 6.1 | 0.00 | 0.00 | 0.00 | 55 | 1014.9 |
| 20260507120237 | 40 | 236 | 1.7 | 6.1 | 0.00 | 0.00 | 0.00 | 55 | 1014.9 |
| 20260507115737 | 40 | 234 | 1.7 | 4.3 | 0.00 | 0.00 | 0.00 | 55 | 1014.9 |
| 20260507115237 | 40 | 250 | 1.7 | 4.3 | 0.00 | 0.00 | 0.00 | 55 | 1014.7 |
| 20260507114737 | 40 | 240 | 0.9 | 5.2 | 0.00 | 0.00 | 0.00 | 55 | 1014.8 |
| 20260507114237 | 40 | 223 | 1.7 | 5.2 | 0.00 | 0.00 | 0.00 | 56 | 1014.8 |
| 20260507113737 | 40 | 220 | 2.6 | 5.2 | 0.00 | 0.00 | 0.00 | 56 | 1014.7 |
| 20260507113237 | 40 | 248 | 1.7 | 5.2 | 0.00 | 0.00 | 0.00 | 55 | 1014.7 |
| 20260507112737 | 40 | 255 | 1.7 | 5.2 | 0.00 | 0.00 | 0.00 | 55 | 1014.6 |
| 20260507112237 | 40 | 263 | 1.7 | 5.2 | 0.00 | 0.00 | 0.00 | 56 | 1014.7 |
| 20260507111737 | 40 | 256 | 2.6 | 5.2 | 0.00 | 0.00 | 0.00 | 55 | 1014.6 |
| 20260507111237 | 40 | 271 | 1.7 | 7.0 | 0.00 | 0.00 | 0.00 | 55 | 1014.6 |
| 20260507110737 | 39 | 236 | 2.6 | 7.0 | 0.00 | 0.00 | 0.00 | 56 | 1014.5 |
| 20260507110237 | 39 | 210 | 2.6 | 7.8 | 0.00 | 0.00 | 0.00 | 56 | 1014.7 |
| 20260507105737 | 39 | 218 | 1.7 | 7.8 | 0.00 | 0.00 | 0.00 | 57 | 1014.7 |
| 20260507105237 | 39 | 222 | 2.6 | 7.0 | 0.00 | 0.00 | 0.00 | 57 | 1014.8 |
| 20260507104737 | 39 | 238 | 2.6 | 6.1 | 0.00 | 0.00 | 0.00 | 57 | 1014.8 |
| 20260507104258 | 39 | 247 | 0.9 | 6.1 | 0.00 | 0.00 | 0.00 | 57 | 1014.9 |
| 20260507103758 | 39 | 240 | 1.7 | 7.0 | 0.00 | 0.00 | 0.00 | 57 | 1014.9 |
| 20260507103237 | 39 | 243 | 2.6 | 7.0 | 0.00 | 0.00 | 0.00 | 57 | 1014.9 |
| 20260507102737 | 39 | 264 | 1.7 | 5.2 | 0.00 | 0.00 | 0.00 | 57 | 1014.9 |
| 20260507102237 | 39 | 254 | 1.7 | 6.1 | 0.00 | 0.00 | 0.00 | 57 | 1015.0 |
| 20260507101758 | 39 | 237 | 1.7 | 6.1 | 0.00 | 0.00 | 0.00 | 58 | 1015.1 |
| 20260507101258 | 39 | 247 | 1.7 | 5.2 | 0.00 | 0.00 | 0.00 | 58 | 1015.1 |
| 20260507100737 | 39 | 259 | 0.9 | 5.2 | 0.00 | 0.00 | 0.00 | 58 | 1015.2 |
| 20260507100237 | 39 | 255 | 1.7 | 5.2 | 0.00 | 0.00 | 0.00 | 58 | 1015.3 |
| 20260507095758 | 39 | 240 | 1.7 | 5.2 | 0.00 | 0.00 | 0.00 | 58 | 1015.2 |
| 20260507095237 | 39 | 208 | 0.9 | 5.2 | 0.00 | 0.00 | 0.00 | 58 | 1015.2 |